• In Lithuania
  • List of Countries
  • For 7 days
  • Water Temperature
  • Satellite Maps
  • Weather Map
  • Weather Widgets
  • user-avatar
    Login

    Hourly Weather Arhus

    Today, 21 September, Friday

    Time Temperature Precipitation Wind Pressure Humidity
    00:00 +16°C° 0 mm 7 mps 751 mmHg 88%
    01:00 +16°C° 0 mm 8 mps 750 mmHg 86%
    02:00 +16°C° 0 mm 8 mps 750 mmHg 85%
    03:00 +17°C° 0 mm 8 mps 749 mmHg 84%
    04:00 +17°C° 0 mm 8 mps 748 mmHg 83%
    05:00 +17°C° 0 mm 9 mps 747 mmHg 81%
    06:00 +17°C° 0 mm 9 mps 746 mmHg 80%
    07:00 +17°C° 0 mm 9 mps 746 mmHg 78%
    08:00 +17°C° 0.3 mm 10 mps 745 mmHg 78%
    09:00 +17°C° 0.3 mm 11 mps 744 mmHg 77%
    10:00 +17°C° 0.3 mm 12 mps 743 mmHg 76%
    11:00 +15°C° 1 mm 13 mps 743 mmHg 73%
    12:00 +14°C° 1 mm 14 mps 743 mmHg 70%
    13:00 +13°C° 1 mm 14 mps 744 mmHg 67%
    14:00 +13°C° 0.1 mm 14 mps 744 mmHg 65%
    15:00 +13°C° 0.1 mm 14 mps 744 mmHg 63%
    16:00 +12°C° 0.1 mm 14 mps 745 mmHg 61%
    17:00 +12°C° 0.1 mm 14 mps 745 mmHg 64%
    18:00 +10°C° 0.1 mm 14 mps 745 mmHg 68%
    19:00 +9°C° 0.1 mm 14 mps 745 mmHg 72%
    20:00 +9°C° 0.3 mm 12 mps 746 mmHg 73%
    21:00 +9°C° 0.3 mm 11 mps 747 mmHg 75%
    22:00 +8°C° 0.3 mm 9 mps 747 mmHg 76%
    23:00 +8°C° 0 mm 9 mps 748 mmHg 75%

    Tomorrow, 22 September, Saturday

    Time Temperature Precipitation Wind Pressure Humidity
    00:00 +8°C° 0 mm 9 mps 749 mmHg 74%
    01:00 +8°C° 0 mm 10 mps 749 mmHg 73%
    02:00 +8°C° 0 mm 9 mps 750 mmHg 74%
    03:00 +8°C° 0 mm 9 mps 751 mmHg 74%
    04:00 +8°C° 0 mm 9 mps 751 mmHg 74%
    05:00 +8°C° 0 mm 9 mps 752 mmHg 75%
    06:00 +8°C° 0 mm 9 mps 752 mmHg 76%
    07:00 +9°C° 0 mm 8 mps 752 mmHg 77%
    08:00 +10°C° 0.2 mm 9 mps 753 mmHg 73%
    09:00 +11°C° 0.2 mm 10 mps 753 mmHg 69%
    10:00 +12°C° 0.2 mm 10 mps 753 mmHg 65%
    11:00 +12°C° 0.2 mm 10 mps 753 mmHg 63%
    12:00 +12°C° 0.2 mm 10 mps 753 mmHg 60%
    13:00 +12°C° 0.2 mm 11 mps 753 mmHg 58%
    14:00 +12°C° 0.2 mm 10 mps 753 mmHg 61%
    15:00 +12°C° 0.2 mm 10 mps 753 mmHg 64%
    16:00 +12°C° 0.2 mm 10 mps 754 mmHg 68%
    17:00 +11°C° 0.1 mm 9 mps 754 mmHg 70%
    18:00 +10°C° 0.1 mm 9 mps 754 mmHg 72%
    19:00 +9°C° 0.1 mm 8 mps 755 mmHg 74%
    20:00 +9°C° 0 mm 8 mps 755 mmHg 74%
    21:00 +9°C° 0 mm 8 mps 756 mmHg 73%
    22:00 +9°C° 0 mm 8 mps 756 mmHg 73%
    23:00 +9°C° 0 mm 8 mps 756 mmHg 73%

    Day after tomorrow, 23 September, Sunday

    Time Temperature Precipitation Wind Pressure Humidity
    00:00 +7°C° 0 mm 8 mps 757 mmHg 74%
    01:00 +7°C° 0 mm 8 mps 757 mmHg 74%
    02:00 +7°C° 0 mm 8 mps 757 mmHg 74%
    03:00 +7°C° 0 mm 8 mps 757 mmHg 74%
    04:00 +7°C° 0 mm 8 mps 757 mmHg 75%
    05:00 +8°C° 0 mm 7 mps 757 mmHg 75%
    06:00 +8°C° 0 mm 7 mps 757 mmHg 75%
    07:00 +8°C° 0 mm 7 mps 757 mmHg 76%
    08:00 +9°C° 0 mm 7 mps 757 mmHg 70%
    09:00 +10°C° 0 mm 7 mps 757 mmHg 65%
    10:00 +11°C° 0 mm 7 mps 757 mmHg 59%
    11:00 +11°C° 0 mm 7 mps 757 mmHg 58%
    12:00 +11°C° 0 mm 7 mps 757 mmHg 57%
    13:00 +13°C° 0 mm 6 mps 757 mmHg 56%
    14:00 +11°C° 0 mm 6 mps 757 mmHg 57%
    15:00 +11°C° 0 mm 6 mps 756 mmHg 59%
    16:00 +12°C° 0 mm 5 mps 756 mmHg 60%
    17:00 +10°C° 0 mm 5 mps 756 mmHg 64%
    18:00 +9°C° 0 mm 5 mps 755 mmHg 67%
    19:00 +8°C° 0 mm 4 mps 755 mmHg 70%
    20:00 +8°C° 0 mm 4 mps 755 mmHg 70%
    21:00 +8°C° 0 mm 5 mps 755 mmHg 69%
    22:00 +8°C° 0 mm 5 mps 755 mmHg 69%
    23:00 +8°C° 0 mm 6 mps 755 mmHg 67%

    24 September, Monday

    Time Temperature Precipitation Wind Pressure Humidity
    00:00 +8°C° 0 mm 6 mps 755 mmHg 65%
    01:00 +6°C° 0 mm 7 mps 755 mmHg 63%
    02:00 +6°C° 0 mm 7 mps 755 mmHg 63%
    03:00 +6°C° 0 mm 8 mps 756 mmHg 64%
    04:00 +6°C° 0 mm 8 mps 756 mmHg 65%
    05:00 +6°C° 0.1 mm 8 mps 757 mmHg 65%
    06:00 +6°C° 0.1 mm 8 mps 758 mmHg 66%
    07:00 +6°C° 0.1 mm 8 mps 759 mmHg 66%
    08:00 +7°C° 0.2 mm 8 mps 760 mmHg 62%
    09:00 +9°C° 0.2 mm 8 mps 761 mmHg 59%
    10:00 +10°C° 0.2 mm 7 mps 762 mmHg 55%
    11:00 +11°C° 0.4 mm 7 mps 763 mmHg 54%
    12:00 +11°C° 0.4 mm 7 mps 764 mmHg 53%
    13:00 +11°C° 0.4 mm 6 mps 765 mmHg 52%
    14:00 +11°C° 0.2 mm 6 mps 765 mmHg 52%
    15:00 +11°C° 0.2 mm 6 mps 766 mmHg 53%
    16:00 +11°C° 0.2 mm 6 mps 766 mmHg 53%
    17:00 +9°C° 0 mm 6 mps 767 mmHg 58%
    18:00 +8°C° 0 mm 5 mps 768 mmHg 63%
    19:00 +7°C° 0 mm 5 mps 768 mmHg 68%
    20:00 +6°C° 0 mm 5 mps 769 mmHg 68%
    21:00 +6°C° 0 mm 5 mps 770 mmHg 68%
    22:00 +5°C° 0 mm 4 mps 771 mmHg 68%
    23:00 +6°C° 0 mm 5 mps 771 mmHg 68%

    25 September, Tuesday

    Time Temperature Precipitation Wind Pressure Humidity
    00:00 +6°C° 0 mm 5 mps 772 mmHg 67%
    01:00 +6°C° 0 mm 5 mps 772 mmHg 67%
    02:00 +6°C° 0 mm 5 mps 772 mmHg 70%
    03:00 +5°C° 0 mm 5 mps 773 mmHg 74%
    04:00 +5°C° 0 mm 5 mps 773 mmHg 77%
    05:00 +4°C° 0 mm 6 mps 773 mmHg 79%
    06:00 +5°C° 0 mm 6 mps 773 mmHg 81%
    07:00 +5°C° 0 mm 6 mps 774 mmHg 83%
    08:00 +8°C° 0 mm 7 mps 774 mmHg 78%
    09:00 +10°C° 0 mm 7 mps 774 mmHg 73%
    10:00 +12°C° 0 mm 8 mps 774 mmHg 68%
    11:00 +13°C° 0 mm 8 mps 774 mmHg 66%
    12:00 +13°C° 0 mm 9 mps 774 mmHg 65%
    13:00 +13°C° 0 mm 9 mps 774 mmHg 64%
    14:00 +13°C° 0 mm 9 mps 774 mmHg 65%
    15:00 +13°C° 0 mm 9 mps 774 mmHg 65%
    16:00 +12°C° 0 mm 9 mps 773 mmHg 66%
    17:00 +12°C° 0 mm 9 mps 773 mmHg 69%
    18:00 +11°C° 0 mm 9 mps 773 mmHg 73%
    19:00 +10°C° 0 mm 8 mps 773 mmHg 76%
    20:00 +10°C° 0 mm 8 mps 773 mmHg 77%
    21:00 +9°C° 0 mm 8 mps 773 mmHg 79%
    22:00 +9°C° 0 mm 7 mps 773 mmHg 80%
    23:00 +9°C° 0 mm 7 mps 773 mmHg 80%

    26 September, Wednesday

    Time Temperature Precipitation Wind Pressure Humidity
    00:00 +9°C° 0 mm 7 mps 773 mmHg 80%
    01:00 +9°C° 0 mm 7 mps 773 mmHg 80%
    02:00 +9°C° 0 mm 7 mps 772 mmHg 82%
    03:00 +9°C° 0 mm 6 mps 772 mmHg 83%
    04:00 +9°C° 0 mm 6 mps 772 mmHg 85%
    05:00 +9°C° 0 mm 6 mps 772 mmHg 85%
    06:00 +9°C° 0 mm 6 mps 772 mmHg 86%
    07:00 +9°C° 0 mm 6 mps 771 mmHg 86%
    08:00 +10°C° 0 mm 6 mps 771 mmHg 80%
    09:00 +11°C° 0 mm 6 mps 771 mmHg 75%
    10:00 +14°C° 0 mm 7 mps 772 mmHg 69%
    11:00 +14°C° 0 mm 7 mps 771 mmHg 67%
    12:00 +15°C° 0 mm 7 mps 771 mmHg 64%
    13:00 +16°C° 0 mm 7 mps 771 mmHg 62%
    14:00 +15°C° 0 mm 7 mps 771 mmHg 64%
    15:00 +15°C° 0 mm 8 mps 770 mmHg 66%
    16:00 +15°C° 0 mm 8 mps 770 mmHg 68%
    17:00 +14°C° 0 mm 7 mps 770 mmHg 73%
    18:00 +12°C° 0 mm 7 mps 770 mmHg 78%
    19:00 +11°C° 0 mm 6 mps 770 mmHg 83%
    20:00 +10°C° 0 mm 6 mps 769 mmHg 85%
    21:00 +10°C° 0 mm 7 mps 769 mmHg 86%
    22:00 +10°C° 0 mm 7 mps 769 mmHg 87%
    23:00 +10°C° 0 mm 7 mps 769 mmHg 87%
    Show more